START_TIME,STEP,MOV.,M15,t_acc.,M20,t_acc.
1979-03-01 03:00:33.350 ,5,1,0.,24.0,0.,24.0
1979-03-01 03:00:57.350 ,6,1,0.,24.0,0.,24.0
1979-03-01 03:01:21.350 ,7,1,0.,24.0,0.,24.0
1979-03-01 03:01:45.350 ,7,1,0.,24.0,0.,24.0
1979-03-01 03:02:09.350 ,6,1,0.,24.0,0.,24.0
1979-03-01 03:02:33.350 ,5,1,0.,24.0,0.,24.0
1979-03-01 03:02:57.350 ,4,1,0.,24.0,0.,24.0
1979-03-01 03:03:21.350 ,3,1,0.,24.0,0.,24.0
1979-03-01 03:03:45.350 ,2,1,0.,24.0,0.,24.0
1979-03-01 03:04:09.350 ,1,1,0.,24.0,0.,24.0
1979-03-01 03:04:33.350 ,0,1,0.,24.0,0.,24.0
1979-03-01 03:04:57.350 ,0,0,0.,24.0,0.,24.0
1979-03-01 03:05:21.350 ,1,1,0.,24.0,0.,24.0
1979-03-01 03:05:45.350 ,2,1,0.,24.0,0.,24.0
1979-03-01 03:06:09.350 ,3,1,0.,24.0,0.,24.0
1979-03-01 03:06:33.350 ,4,1,0.,24.0,0.,24.0
1979-03-01 03:06:57.350 ,5,1,0.,24.0,0.,24.0
1979-03-01 03:07:21.350 ,6,1,0.,24.0,0.,24.0
1979-03-01 03:07:45.350 ,7,1,0.,24.0,0.,24.0
1979-03-01 03:08:09.350 ,7,1,0.,24.0,0.,24.0
1979-03-01 03:08:33.350 ,0,0,0.,24.0,0.,24.0
1979-03-01 03:08:57.350 ,0,0,0.,24.0,0.,24.0
1979-03-01 03:09:21.350 ,0,0,0.,24.0,0.,24.0
1979-03-01 03:09:45.350 ,3,1,0.,24.0,0.,24.0
1979-03-01 03:10:09.350 ,2,1,0.,24.0,0.,24.0
1979-03-01 03:10:33.350 ,1,1,0.,24.0,0.,24.0
1979-03-01 03:10:57.350 ,0,1,0.,24.0,0.,24.0
1979-03-01 03:11:21.350 ,0,1,0.,24.0,0.,24.0
1979-03-01 03:11:45.350 ,1,1,0.,24.0,0.,24.0
1979-03-01 03:12:09.350 ,2,1,0.,24.0,0.,24.0
1979-03-01 03:12:33.350 ,3,1,0.,24.0,0.,24.0
1979-03-01 03:12:57.350 ,4,1,0.,24.0,0.,24.0
1979-03-01 03:13:21.350 ,5,1,0.,24.0,0.,24.0
1979-03-01 03:13:45.350 ,6,1,0.,24.0,0.,24.0
1979-03-01 03:14:09.350 ,7,1,0.,24.0,0.,24.0
1979-03-01 03:14:33.350 ,7,1,0.,24.0,0.,24.0
1979-03-01 03:14:57.350 ,6,1,0.,24.0,0.,24.0
1979-03-01 03:15:21.350 ,5,1,0.,24.0,0.,24.0
1979-03-01 03:15:45.350 ,4,1,0.,24.0,0.,24.0
1979-03-01 03:16:09.350 ,3,1,0.,24.0,0.,24.0
1979-03-01 03:16:33.350 ,2,1,0.,24.0,0.,24.0
1979-03-01 03:16:57.350 ,1,1,0.,24.0,0.,24.0
1979-03-01 03:17:21.350 ,0,1,0.,24.0,0.,24.0
1979-03-01 03:17:45.350 ,0,1,0.,24.0,0.,24.0
1979-03-01 03:18:09.350 ,1,1,0.,24.0,0.,24.0
1979-03-01 03:18:33.350 ,2,1,0.,24.0,0.,24.0
1979-03-01 03:18:57.350 ,0,0,,0,,0
1979-03-01 03:19:21.350 ,0,0,0.,24.0,0.,24.0
1979-03-01 03:19:45.350 ,0,0,0.,24.0,0.,24.0
1979-03-01 03:20:09.350 ,6,1,0.,24.0,0.,24.0
1979-03-01 03:20:33.350 ,7,1,0.,24.0,0.,24.0
1979-03-01 03:20:57.350 ,7,1,0.,24.0,0.,24.0
1979-03-01 03:21:21.350 ,6,1,0.,24.0,0.,24.0
1979-03-01 03:21:45.350 ,0,0,0.,24.0,0.,24.0
1979-03-01 03:22:09.350 ,4,1,0.,24.0,0.,24.0
1979-03-01 03:22:33.350 ,3,1,0.,24.0,0.,24.0
1979-03-01 03:22:57.350 ,2,1,0.,24.0,0.,24.0
1979-03-01 03:23:21.350 ,1,1,0.,24.0,0.,24.0
1979-03-01 03:23:45.350 ,0,1,0.,24.0,0.,24.0
1979-03-01 03:24:09.350 ,0,1,0.,24.0,0.,24.0
1979-03-01 03:24:33.350 ,1,1,0.,24.0,0.,24.0
1979-03-01 03:24:57.350 ,2,1,0.,24.0,0.,24.0
1979-03-01 03:25:21.350 ,3,1,0.,24.0,0.,24.0
1979-03-01 03:25:45.350 ,4,1,0.,24.0,0.,24.0
1979-03-01 03:26:09.350 ,5,1,0.,24.0,0.,24.0
1979-03-01 03:26:33.350 ,6,1,0.,24.0,0.,24.0
1979-03-01 03:26:57.350 ,7,1,0.,24.0,0.,24.0
1979-03-01 03:27:21.350 ,7,1,0.,24.0,0.,24.0
1979-03-01 03:27:45.350 ,0,0,,0,,0
1979-03-01 03:27:50.750 ,6,1,0.,24.0,0.,24.0
1979-03-01 03:28:09.350 ,5,1,0.,24.0,0.,24.0
1979-03-01 03:28:33.350 ,4,1,0.,24.0,0.,24.0
1979-03-01 03:28:57.350 ,3,1,0.,24.0,0.,24.0
1979-03-01 03:29:21.350 ,2,1,0.,24.0,0.,24.0
1979-03-01 03:29:45.350 ,1,1,0.,24.0,0.,24.0
1979-03-01 03:30:09.350 ,0,1,0.,24.0,0.,24.0
1979-03-01 03:30:33.350 ,0,1,0.,24.0,0.,24.0
1979-03-01 03:30:57.350 ,1,1,0.,24.0,0.,24.0
1979-03-01 03:31:21.350 ,2,1,0.,24.0,0.,24.0
1979-03-01 03:31:45.350 ,3,1,0.,24.0,0.,24.0
1979-03-01 03:32:09.350 ,4,1,0.,24.0,0.,24.0
1979-03-01 03:32:33.350 ,5,1,0.,24.0,0.,24.0
1979-03-01 03:32:57.350 ,6,1,0.,24.0,0.,24.0
1979-03-01 03:33:21.350 ,7,1,0.,24.0,0.,24.0
1979-03-01 03:33:45.350 ,7,1,0.,24.0,0.,24.0
1979-03-01 03:34:09.350 ,6,1,0.,24.0,0.,24.0
1979-03-01 03:34:33.350 ,5,1,0.,24.0,0.,24.0
1979-03-01 03:34:57.350 ,4,1,0.,24.0,0.,24.0
1979-03-01 03:35:21.350 ,3,1,0.,24.0,0.,24.0
1979-03-01 03:35:45.350 ,2,1,0.,24.0,0.,24.0
1979-03-01 03:36:09.350 ,1,1,0.,24.0,0.,24.0
1979-03-01 03:36:33.350 ,0,1,0.,24.0,0.,24.0
1979-03-01 03:36:57.350 ,0,1,0.,24.0,0.,24.0
1979-03-01 03:37:21.350 ,1,1,0.,24.0,0.,24.0
1979-03-01 03:37:45.350 ,2,1,0.,24.0,0.,24.0
1979-03-01 03:38:09.350 ,3,1,0.,24.0,0.,24.0
1979-03-01 03:38:33.350 ,4,1,0.,24.0,0.,24.0
1979-03-01 03:38:57.350 ,5,1,0.,24.0,0.,24.0
1979-03-01 03:39:21.350 ,6,1,0.,24.0,0.,24.0
1979-03-01 03:39:45.350 ,7,1,0.,24.0,0.,24.0
1979-03-01 03:40:09.350 ,7,1,0.,24.0,0.,24.0
1979-03-01 03:40:33.350 ,6,1,0.,24.0,0.,24.0
1979-03-01 03:40:57.350 ,5,1,0.,24.0,0.,24.0
1979-03-01 03:41:21.350 ,4,1,0.,24.0,0.,24.0
1979-03-01 03:41:45.350 ,3,1,0.,24.0,0.,24.0
1979-03-01 03:42:09.350 ,2,1,0.,24.0,0.,24.0
1979-03-01 03:42:33.350 ,1,1,0.,24.0,0.,24.0
1979-03-01 03:42:57.350 ,0,1,0.,24.0,0.,24.0
1979-03-01 03:44:09.350 ,0,0,0.,24.0,0.,24.0
1979-03-01 03:44:33.350 ,3,1,0.,24.0,0.,24.0
1979-03-01 03:44:57.350 ,4,1,0.,24.0,0.,24.0
1979-03-01 03:45:21.350 ,5,1,0.,24.0,0.,24.0
1979-03-01 03:45:45.350 ,6,1,0.,24.0,0.,24.0
1979-03-01 03:46:09.350 ,7,1,0.,24.0,0.,24.0
1979-03-01 03:46:33.350 ,7,1,0.,24.0,0.,24.0
1979-03-01 03:46:57.350 ,6,1,0.,24.0,0.,24.0
1979-03-01 03:47:21.350 ,5,1,0.,24.0,0.,24.0
1979-03-01 03:47:45.350 ,4,1,0.,24.0,0.,24.0
1979-03-01 03:48:09.350 ,3,1,0.,24.0,0.,24.0
1979-03-01 03:48:33.350 ,2,1,0.,24.0,0.,24.0
1979-03-01 03:48:57.350 ,1,1,0.,24.0,0.,24.0
1979-03-01 03:49:21.350 ,0,1,0.,24.0,0.,24.0
1979-03-01 03:49:45.350 ,0,1,0.,24.0,0.,24.0
1979-03-01 03:50:09.350 ,1,1,0.,24.0,0.,24.0
1979-03-01 03:50:33.350 ,2,1,0.,24.0,0.,24.0
1979-03-01 03:50:57.350 ,3,1,0.,24.0,0.,24.0
1979-03-01 03:51:21.350 ,4,1,0.,24.0,0.,24.0
1979-03-01 03:51:45.350 ,5,1,0.,24.0,0.,24.0
1979-03-01 03:52:09.350 ,6,1,0.,24.0,0.,24.0
1979-03-01 03:52:33.350 ,7,1,0.,24.0,0.,24.0
1979-03-01 03:52:57.350 ,7,1,0.,24.0,0.,24.0
1979-03-01 03:53:21.350 ,6,1,0.,24.0,0.,24.0
1979-03-01 03:53:45.350 ,5,1,0.,24.0,0.,24.0
1979-03-01 03:54:09.350 ,4,1,0.,24.0,0.,24.0
1979-03-01 03:54:33.350 ,3,1,0.,24.0,0.,24.0
1979-03-01 03:54:57.350 ,2,1,0.,24.0,0.,24.0
1979-03-01 03:55:21.350 ,1,1,0.,24.0,0.,24.0
1979-03-01 03:55:45.350 ,0,1,0.,24.0,0.,24.0
1979-03-01 03:56:09.350 ,0,0,,0,,0
1979-03-01 03:56:33.350 ,0,0,,0,,0
1979-03-01 03:57:48.950 ,0,0,,0,,0
1979-03-01 03:58:09.350 ,0,0,,0,,0
1979-03-01 03:59:29.150 ,0,0,0.,24.0,0.,24.0
1979-03-01 03:59:45.350 ,6,1,0.,24.0,0.,24.0
1979-03-01 04:00:09.350 ,5,1,0.,24.0,0.,24.0
1979-03-01 04:00:33.350 ,4,1,0.,24.0,0.,24.0
1979-03-01 04:00:57.350 ,3,1,0.,24.0,0.,24.0
1979-03-01 04:01:21.350 ,2,1,0.,24.0,0.,24.0
1979-03-01 04:01:45.350 ,1,1,0.,24.0,0.,24.0
1979-03-01 04:02:09.350 ,0,1,0.,24.0,0.,24.0
1979-03-01 04:02:33.350 ,0,1,0.,24.0,0.,24.0
1979-03-01 04:02:57.350 ,1,1,0.,24.0,0.,24.0
1979-03-01 04:03:21.350 ,2,1,0.,24.0,0.,24.0
1979-03-01 04:03:45.350 ,3,1,0.,24.0,0.,24.0
1979-03-01 04:04:09.350 ,4,1,0.,24.0,0.,24.0
1979-03-01 04:04:33.350 ,5,1,0.,24.0,0.,24.0
1979-03-01 04:04:57.350 ,6,1,0.,24.0,0.,24.0
1979-03-01 04:05:21.350 ,7,1,0.,24.0,0.,24.0
1979-03-01 04:05:45.350 ,7,1,0.,24.0,0.,24.0
1979-03-01 04:06:09.350 ,6,1,0.,24.0,0.,24.0
1979-03-01 04:06:33.350 ,5,1,0.,24.0,0.,24.0
1979-03-01 04:06:57.350 ,4,1,0.,24.0,0.,24.0
1979-03-01 04:07:21.350 ,3,1,0.,24.0,0.,24.0
1979-03-01 04:07:45.350 ,2,1,0.,24.0,0.,24.0
1979-03-01 04:08:09.350 ,1,1,0.,24.0,0.,24.0
1979-03-01 04:08:33.350 ,0,1,0.,24.0,0.,24.0
1979-03-01 04:08:57.350 ,0,1,0.,24.0,0.,24.0
1979-03-01 04:09:21.350 ,1,1,0.,24.0,0.,24.0
1979-03-01 04:09:45.350 ,2,1,0.,24.0,0.,24.0
1979-03-01 04:10:09.350 ,3,1,0.,24.0,0.,24.0
1979-03-01 04:10:33.350 ,4,1,0.,24.0,0.,24.0
1979-03-01 04:10:57.350 ,5,1,0.,24.0,0.,24.0
1979-03-01 04:11:21.350 ,6,1,0.,24.0,0.,24.0
1979-03-01 04:11:45.350 ,7,1,0.,24.0,0.,24.0
1979-03-01 04:12:09.350 ,7,1,0.,24.0,0.,24.0
1979-03-01 04:12:33.350 ,6,1,0.,24.0,0.,24.0
1979-03-01 04:12:57.350 ,5,1,0.,24.0,0.,24.0
1979-03-01 04:13:21.350 ,4,1,0.,24.0,0.,24.0
1979-03-01 04:13:45.350 ,3,1,0.,24.0,0.,24.0
1979-03-01 04:14:09.350 ,2,1,0.,24.0,0.,24.0
1979-03-01 04:14:33.350 ,1,1,0.,24.0,0.,24.0
1979-03-01 04:14:57.350 ,0,1,0.,24.0,0.,24.0
1979-03-01 04:15:21.350 ,0,1,0.,24.0,0.,24.0
1979-03-01 04:15:45.350 ,1,1,0.,24.0,0.,24.0
1979-03-01 04:16:09.350 ,2,1,0.,24.0,0.,24.0
1979-03-01 04:16:33.350 ,3,1,0.,24.0,0.,24.0
1979-03-01 04:16:57.350 ,4,1,0.,24.0,0.,24.0
1979-03-01 04:17:21.350 ,5,1,0.,24.0,0.,24.0
1979-03-01 04:17:45.350 ,6,1,0.,24.0,0.,24.0
1979-03-01 04:18:09.350 ,7,1,0.,24.0,0.,24.0
1979-03-01 04:18:33.350 ,7,1,0.,24.0,0.,24.0
1979-03-01 04:18:57.350 ,6,1,0.,24.0,0.,24.0
1979-03-01 04:19:21.350 ,5,1,0.,24.0,0.,24.0
1979-03-01 04:19:45.350 ,4,1,0.,24.0,0.,24.0
1979-03-01 04:20:09.350 ,3,1,0.,24.0,0.,24.0
1979-03-01 04:20:33.350 ,2,1,0.,24.0,0.,24.0
1979-03-01 04:20:57.350 ,1,1,0.,24.0,0.,24.0
1979-03-01 04:21:21.350 ,0,1,0.,24.0,0.,24.0
1979-03-01 04:21:45.350 ,0,1,0.,24.0,0.,24.0
1979-03-01 04:22:09.350 ,1,1,0.,24.0,0.,24.0
1979-03-01 04:22:33.350 ,2,1,0.,24.0,0.,24.0
1979-03-01 04:22:57.350 ,3,1,0.,24.0,0.,24.0
1979-03-01 04:23:21.350 ,4,1,0.,24.0,0.,24.0
1979-03-01 04:23:45.350 ,5,1,0.,24.0,0.,24.0
1979-03-01 04:24:09.350 ,6,1,0.,24.0,0.,24.0
1979-03-01 04:24:33.350 ,0,0,,0,,0
1979-03-01 04:24:57.350 ,7,1,0.,24.0,0.,24.0
1979-03-01 04:25:21.350 ,6,1,0.,24.0,0.,24.0
1979-03-01 04:25:45.350 ,5,1,0.,24.0,0.,24.0
1979-03-01 04:26:09.350 ,4,1,0.,24.0,0.,24.0
1979-03-01 04:26:33.350 ,3,1,0.,24.0,0.,24.0
1979-03-01 04:26:57.350 ,2,1,0.,24.0,0.,24.0
1979-03-01 04:27:21.350 ,1,1,0.,24.0,0.,24.0
1979-03-01 04:27:45.350 ,0,1,0.,24.0,0.,24.0
1979-03-01 04:28:09.350 ,0,1,0.,24.0,0.,24.0
1979-03-01 04:28:33.350 ,1,1,0.,24.0,0.,24.0
1979-03-01 04:28:57.350 ,2,1,0.,24.0,0.,24.0
1979-03-01 04:29:21.350 ,3,1,0.,24.0,0.,24.0
1979-03-01 04:29:45.350 ,4,1,0.,24.0,0.,24.0
1979-03-01 04:30:09.350 ,5,1,0.,24.0,0.,24.0
1979-03-01 04:30:33.350 ,6,1,0.,24.0,0.,24.0
1979-03-01 04:30:57.350 ,7,1,0.,24.0,0.,24.0
1979-03-01 04:31:21.350 ,7,1,0.,24.0,0.,24.0
1979-03-01 04:31:45.350 ,6,1,0.,24.0,0.,24.0
1979-03-01 04:32:09.350 ,5,1,0.,24.0,0.,24.0
1979-03-01 04:32:33.350 ,4,1,0.,24.0,0.,24.0
1979-03-01 04:32:57.350 ,3,1,0.,24.0,0.,24.0
1979-03-01 04:33:21.350 ,2,1,0.,24.0,0.,24.0
1979-03-01 04:33:45.350 ,1,1,0.,24.0,0.,24.0
1979-03-01 04:34:09.350 ,0,1,0.,24.0,0.,24.0
1979-03-01 04:34:33.350 ,0,1,0.,24.0,0.,24.0
1979-03-01 04:34:57.350 ,1,1,0.,24.0,0.,24.0
1979-03-01 04:35:21.350 ,2,1,0.,24.0,0.,24.0
1979-03-01 04:35:45.350 ,3,1,0.,24.0,0.,24.0
1979-03-01 04:36:09.350 ,4,1,0.,24.0,0.,24.0
1979-03-01 04:36:33.350 ,5,1,0.,24.0,0.,24.0
1979-03-01 04:36:57.350 ,6,1,0.,24.0,0.,24.0
1979-03-01 04:37:21.350 ,7,1,0.,24.0,0.,24.0
1979-03-01 04:37:45.350 ,7,1,0.,24.0,0.,24.0
1979-03-01 04:38:09.350 ,6,1,0.,24.0,0.,24.0
1979-03-01 04:38:33.350 ,5,1,0.,24.0,0.,24.0
1979-03-01 04:38:57.350 ,4,1,0.,24.0,0.,24.0
1979-03-01 04:39:21.350 ,3,1,0.,24.0,0.,24.0
1979-03-01 04:39:45.350 ,2,1,0.,24.0,0.,24.0
1979-03-01 04:40:09.350 ,1,1,0.,24.0,0.,24.0
1979-03-01 04:40:33.350 ,0,1,0.,24.0,0.,24.0
1979-03-01 04:40:57.350 ,0,1,0.,24.0,0.,24.0
1979-03-01 04:41:21.350 ,1,1,0.,24.0,0.,24.0
1979-03-01 04:41:45.350 ,2,1,0.,24.0,0.,24.0
1979-03-01 04:42:09.350 ,3,1,0.,24.0,0.,24.0
1979-03-01 04:42:33.350 ,4,1,0.,24.0,0.,24.0
1979-03-01 04:42:57.350 ,5,1,0.,24.0,0.,24.0
1979-03-01 04:43:21.350 ,6,1,0.,24.0,0.,24.0
1979-03-01 04:43:45.350 ,7,1,0.,24.0,0.,24.0
1979-03-01 04:44:09.350 ,7,1,0.,24.0,0.,24.0
1979-03-01 04:44:33.350 ,6,1,0.,24.0,0.,24.0
1979-03-01 04:44:57.350 ,5,1,0.,24.0,0.,24.0
1979-03-01 04:45:21.350 ,4,1,0.,24.0,0.,24.0
1979-03-01 04:45:45.350 ,3,1,0.,24.0,0.,24.0
1979-03-01 04:46:09.350 ,2,1,0.,24.0,0.,24.0
1979-03-01 04:46:33.350 ,1,1,0.,24.0,0.,24.0
1979-03-01 04:46:57.350 ,0,1,0.,24.0,0.,24.0
1979-03-01 04:47:21.350 ,0,1,0.,24.0,0.,24.0
1979-03-01 04:47:45.350 ,1,1,0.,24.0,0.,24.0
1979-03-01 04:48:09.350 ,2,1,0.,24.0,0.,24.0
1979-03-01 04:48:33.350 ,3,1,0.,24.0,0.,24.0
1979-03-01 04:48:57.350 ,4,1,0.,24.0,0.,24.0
1979-03-01 04:49:21.350 ,5,1,0.,24.0,0.,24.0
1979-03-01 04:49:45.350 ,6,1,0.,24.0,0.,24.0
1979-03-01 04:50:09.350 ,7,1,0.,24.0,0.,24.0
1979-03-01 04:50:33.350 ,7,1,0.,24.0,0.,24.0
1979-03-01 04:50:57.350 ,6,1,0.,24.0,0.,24.0
1979-03-01 04:51:21.350 ,5,1,0.,24.0,0.,24.0
1979-03-01 04:51:45.350 ,4,1,0.,24.0,0.,24.0
1979-03-01 04:52:09.350 ,3,1,0.,24.0,0.,24.0
1979-03-01 04:52:33.350 ,2,1,0.,24.0,0.,24.0
1979-03-01 04:52:57.350 ,1,1,0.,24.0,0.,24.0
1979-03-01 04:53:21.350 ,0,1,0.,24.0,0.,24.0
1979-03-01 04:53:45.350 ,0,1,0.,24.0,0.,24.0
1979-03-01 04:54:09.350 ,1,1,0.,24.0,0.,24.0
1979-03-01 04:54:33.350 ,2,1,0.,24.0,0.,24.0
1979-03-01 04:54:57.350 ,3,1,0.,24.0,0.,24.0
1979-03-01 04:55:21.350 ,4,1,0.,24.0,0.,24.0
1979-03-01 04:55:45.350 ,5,1,0.,24.0,0.,24.0
1979-03-01 04:56:09.350 ,6,1,0.,24.0,0.,24.0
1979-03-01 04:56:33.350 ,7,1,0.,24.0,0.,24.0
1979-03-01 04:56:57.350 ,7,1,0.,24.0,0.,24.0
1979-03-01 04:57:21.350 ,6,1,0.,24.0,0.,24.0
1979-03-01 04:57:45.350 ,5,1,0.,24.0,0.,24.0
1979-03-01 04:58:09.350 ,4,1,0.,24.0,0.,24.0
1979-03-01 04:58:33.350 ,3,1,0.,24.0,0.,24.0
1979-03-01 04:58:57.350 ,2,1,0.,24.0,0.,24.0
1979-03-01 04:59:21.350 ,1,1,0.,24.0,0.,24.0
1979-03-01 04:59:45.350 ,0,1,0.,24.0,0.,24.0
1979-03-01 05:00:09.350 ,0,1,0.,24.0,0.,24.0
1979-03-01 05:00:33.350 ,1,1,0.,24.0,0.,24.0
1979-03-01 05:00:57.350 ,2,1,0.,24.0,0.,24.0
1979-03-01 05:01:21.350 ,3,1,0.,24.0,0.,24.0
1979-03-01 05:01:45.350 ,4,1,0.,24.0,0.,24.0
1979-03-01 05:02:09.350 ,5,1,0.,24.0,0.,24.0
1979-03-01 05:02:33.350 ,6,1,0.,24.0,0.,24.0
1979-03-01 05:02:57.350 ,7,1,0.,24.0,0.,24.0
1979-03-01 05:04:09.350 ,0,0,0.,24.0,0.,24.0
1979-03-01 05:04:33.350 ,4,1,0.,24.0,0.,24.0
1979-03-01 05:04:57.350 ,3,1,0.,24.0,0.,24.0
1979-03-01 05:05:21.350 ,2,1,0.,24.0,0.,24.0
1979-03-01 05:05:45.350 ,1,1,0.,24.0,0.,24.0
1979-03-01 05:06:09.350 ,0,1,0.,24.0,0.,24.0
1979-03-01 05:06:33.350 ,0,1,0.,24.0,0.,24.0
1979-03-01 05:06:57.350 ,1,1,0.,24.0,0.,24.0
1979-03-01 05:07:21.350 ,2,1,0.,24.0,0.,24.0
1979-03-01 05:07:45.350 ,3,1,0.,24.0,0.,24.0
1979-03-01 05:08:09.350 ,4,1,0.,24.0,0.,24.0
1979-03-01 05:08:33.350 ,5,1,0.,24.0,0.,24.0
1979-03-01 05:08:57.350 ,6,1,0.,24.0,0.,24.0
1979-03-01 05:09:21.350 ,7,1,0.,24.0,0.,24.0
1979-03-01 05:09:45.350 ,7,1,0.,24.0,0.,24.0
1979-03-01 05:10:09.350 ,6,1,0.,24.0,0.,24.0
1979-03-01 05:10:33.350 ,5,1,0.,24.0,0.,24.0
1979-03-01 05:10:57.350 ,4,1,0.,24.0,0.,24.0
1979-03-01 05:11:21.350 ,3,1,0.,24.0,0.,24.0
1979-03-01 05:11:45.350 ,2,1,0.,24.0,0.,24.0
1979-03-01 05:12:09.350 ,1,1,0.,24.0,0.,24.0
1979-03-01 05:12:33.350 ,0,1,0.,24.0,0.,24.0
1979-03-01 05:12:57.350 ,0,1,0.,24.0,0.,24.0
1979-03-01 05:13:21.350 ,1,1,0.,24.0,0.,24.0
1979-03-01 05:13:45.350 ,2,1,0.,24.0,0.,24.0
1979-03-01 05:14:09.350 ,3,1,0.,24.0,0.,24.0
1979-03-01 05:14:33.350 ,4,1,0.,24.0,0.,24.0
1979-03-01 05:14:57.350 ,5,1,0.,24.0,0.,24.0
1979-03-01 05:15:21.350 ,6,1,0.,24.0,0.,24.0
1979-03-01 05:15:45.350 ,7,1,0.,24.0,0.,24.0
1979-03-01 05:16:09.350 ,7,1,0.,24.0,0.,24.0
1979-03-01 05:16:33.350 ,6,1,0.,24.0,0.,24.0
1979-03-01 05:16:57.350 ,5,1,0.,24.0,0.,24.0
1979-03-01 05:17:21.350 ,4,1,0.,24.0,0.,24.0
1979-03-01 05:17:45.350 ,3,1,0.,24.0,0.,24.0
1979-03-01 05:18:09.350 ,2,1,0.,24.0,0.,24.0
1979-03-01 05:18:33.350 ,1,1,0.,24.0,0.,24.0
1979-03-01 05:18:57.350 ,0,1,0.,24.0,0.,24.0
1979-03-01 05:19:21.350 ,0,1,0.,24.0,0.,24.0
1979-03-01 05:19:45.350 ,1,1,0.,24.0,0.,24.0
1979-03-01 05:20:09.350 ,2,1,0.,24.0,0.,24.0
1979-03-01 05:20:33.350 ,3,1,0.,24.0,0.,24.0
1979-03-01 05:20:57.350 ,4,1,0.,24.0,0.,24.0
1979-03-01 05:21:21.350 ,5,1,0.,24.0,0.,24.0
1979-03-01 05:21:45.350 ,6,1,0.,24.0,0.,24.0
1979-03-01 05:22:09.350 ,7,1,0.,24.0,0.,24.0
1979-03-01 05:22:33.350 ,7,1,0.,24.0,0.,24.0
1979-03-01 05:22:57.350 ,6,1,0.,24.0,0.,24.0
1979-03-01 05:23:21.350 ,5,1,0.,24.0,0.,24.0
1979-03-01 05:23:45.350 ,4,1,0.,24.0,0.,24.0
1979-03-01 05:24:09.350 ,3,1,0.,24.0,0.,24.0
1979-03-01 05:24:33.350 ,2,1,0.,24.0,0.,24.0
1979-03-01 05:24:57.350 ,1,1,0.,24.0,0.,24.0
1979-03-01 05:25:21.350 ,0,1,0.,24.0,0.,24.0
1979-03-01 05:25:45.350 ,0,1,0.,24.0,0.,24.0
1979-03-01 05:26:09.350 ,1,1,0.,24.0,0.,24.0
1979-03-01 05:26:33.350 ,2,1,0.,24.0,0.,24.0
1979-03-01 05:26:57.350 ,3,1,0.,24.0,0.,24.0
1979-03-01 05:27:21.350 ,4,1,0.,24.0,0.,24.0
1979-03-01 05:27:45.350 ,5,1,0.,24.0,0.,24.0
1979-03-01 05:28:09.350 ,6,1,0.,24.0,0.,24.0
1979-03-01 05:28:33.350 ,7,1,0.,24.0,0.,24.0
1979-03-01 05:28:57.350 ,7,1,0.,24.0,0.,24.0
1979-03-01 05:29:21.350 ,6,1,0.,24.0,0.,24.0
1979-03-01 05:29:45.350 ,5,1,0.,24.0,0.,24.0
1979-03-01 05:30:09.350 ,4,1,0.,24.0,0.,24.0
1979-03-01 05:30:33.350 ,3,1,0.,24.0,0.,24.0
1979-03-01 05:30:57.350 ,2,1,0.,24.0,0.,24.0
1979-03-01 05:31:21.350 ,1,1,0.,24.0,0.,24.0
1979-03-01 05:31:45.350 ,0,1,0.,24.0,0.,24.0
1979-03-01 05:32:09.350 ,0,1,0.,24.0,0.,24.0
1979-03-01 05:32:33.350 ,1,1,0.,24.0,0.,24.0
1979-03-01 05:32:57.350 ,2,1,0.,24.0,0.,24.0
1979-03-01 05:33:21.350 ,3,1,0.,24.0,0.,24.0
1979-03-01 05:33:45.350 ,4,1,0.,24.0,0.,24.0
1979-03-01 05:34:09.350 ,5,1,0.,24.0,0.,24.0
1979-03-01 05:34:33.350 ,6,1,0.,24.0,0.,24.0
1979-03-01 05:34:57.350 ,7,1,0.,24.0,0.,24.0
1979-03-01 05:35:21.350 ,7,1,0.,24.0,0.,24.0
1979-03-01 05:35:45.350 ,6,1,0.,24.0,0.,24.0
1979-03-01 05:36:09.350 ,5,1,0.,24.0,0.,24.0
1979-03-01 05:36:33.350 ,4,1,0.,24.0,0.,24.0
1979-03-01 05:36:57.350 ,3,1,0.,24.0,0.,24.0
1979-03-01 05:37:21.350 ,2,1,0.,24.0,0.,24.0
1979-03-01 05:37:45.350 ,1,1,0.,24.0,0.,24.0
1979-03-01 05:38:09.350 ,0,1,0.,24.0,0.,24.0
1979-03-01 05:38:33.350 ,0,1,0.,24.0,0.,24.0
1979-03-01 05:38:57.350 ,1,1,0.,24.0,0.,24.0
1979-03-01 05:39:21.350 ,2,1,0.,24.0,0.,24.0
1979-03-01 05:39:45.350 ,3,1,0.,24.0,0.,24.0
1979-03-01 05:40:09.350 ,4,1,0.,24.0,0.,24.0
1979-03-01 05:40:33.350 ,5,1,0.,24.0,0.,24.0
1979-03-01 05:40:57.350 ,6,1,0.,24.0,0.,24.0
1979-03-01 05:41:21.350 ,7,1,0.,24.0,0.,24.0
1979-03-01 05:41:45.350 ,7,1,0.,24.0,0.,24.0
1979-03-01 05:42:09.350 ,6,1,0.,24.0,0.,24.0
1979-03-01 05:42:33.350 ,5,1,0.,24.0,0.,24.0
1979-03-01 05:42:57.350 ,4,1,0.,24.0,0.,24.0
1979-03-01 05:43:21.350 ,3,1,0.,24.0,0.,24.0
1979-03-01 05:43:45.350 ,2,1,0.,24.0,0.,24.0
1979-03-01 05:44:09.350 ,1,1,0.,24.0,0.,24.0
1979-03-01 05:44:33.350 ,0,1,0.,24.0,0.,24.0
1979-03-01 05:44:57.350 ,0,1,0.,24.0,0.,24.0
1979-03-01 05:45:21.350 ,1,1,0.,24.0,0.,24.0
1979-03-01 05:45:45.350 ,2,1,0.,24.0,0.,24.0
1979-03-01 05:46:09.350 ,3,1,0.,24.0,0.,24.0
1979-03-01 05:46:33.350 ,4,1,0.,24.0,0.,24.0
1979-03-01 05:46:57.350 ,5,1,0.,24.0,0.,24.0
1979-03-01 05:47:21.350 ,6,1,0.,24.0,0.,24.0
1979-03-01 05:47:45.350 ,7,1,0.,24.0,0.,24.0
1979-03-01 05:48:57.350 ,0,0,0.,24.0,0.,24.0
1979-03-01 05:49:21.350 ,4,1,0.,24.0,0.,24.0
1979-03-01 05:49:45.350 ,3,1,0.,24.0,0.,24.0
1979-03-01 05:50:09.350 ,2,1,0.,24.0,0.,24.0
1979-03-01 05:50:33.350 ,1,1,0.,24.0,0.,24.0
1979-03-01 05:50:57.350 ,0,1,0.,24.0,0.,24.0
1979-03-01 05:51:21.350 ,0,1,0.,24.0,0.,24.0
1979-03-01 05:51:45.350 ,1,1,0.,24.0,0.,24.0
1979-03-01 05:52:09.350 ,2,1,0.,24.0,0.,24.0
1979-03-01 05:52:33.350 ,3,1,0.,24.0,0.,24.0
1979-03-01 05:52:57.350 ,4,1,0.,24.0,0.,24.0
1979-03-01 05:53:21.350 ,5,1,0.,24.0,0.,24.0
1979-03-01 05:53:45.350 ,6,1,0.,24.0,0.,24.0
1979-03-01 05:54:09.350 ,7,1,0.,24.0,0.,24.0
1979-03-01 05:54:33.350 ,7,1,0.,24.0,1.,24.0
1979-03-01 05:54:57.350 ,0,0,0.,24.0,0.,24.0
1979-03-01 05:55:21.350 ,5,1,0.,24.0,0.,24.0
1979-03-01 05:55:45.350 ,4,1,0.,24.0,0.,24.0
1979-03-01 05:56:09.350 ,3,1,0.,24.0,0.,24.0
1979-03-01 05:56:33.350 ,2,1,0.,24.0,0.,24.0
1979-03-01 05:56:57.350 ,1,1,0.,24.0,0.,24.0
1979-03-01 05:57:21.350 ,0,1,0.,24.0,0.,24.0
1979-03-01 05:57:45.350 ,0,1,0.,24.0,0.,24.0
1979-03-01 05:58:09.350 ,1,1,0.,24.0,0.,24.0
1979-03-01 05:58:33.350 ,2,1,0.,24.0,0.,24.0
1979-03-01 05:58:57.350 ,3,1,0.,24.0,0.,24.0
1979-03-01 05:59:21.350 ,4,1,0.,24.0,0.,24.0
1979-03-01 05:59:45.350 ,5,1,0.,24.0,0.,24.0
1979-03-01 06:00:09.350 ,6,1,0.,24.0,0.,24.0
